Flag for U.S.A. Weather past 2 weeks in Orange, California, U.S.A.

Now
84 °F

High level clouds.


Feels Like: 83 °F
Forecast: 67 / 89 °F
Wind: 9 mph from Southwest

Location: John Wayne Airport-Orange County Airport

Current Time: Jul 29, 2014 at 4:21:31 PM

Latest Report: Jul 29, 2014 at 3:53 PM


Visibility: 10 mi

Pressure: 29.94 "Hg

Humidity: 38%

Dew point: 56 °F

Location of OrangeLocation

Historic Weather in Orange — Graph

°F

Orange temperature yesterday

Maximum temperature yesterday: 91 °F (at 12:53 PM)
Minimum temperature yesterday: 73 °F (at 12:53 AM)
Average temperature yesterday: 79 °F

Past Weeks' High & Low Weather Summary

 TemperatureHumidityPressure
High91 °F (Jul 28, 12:53 PM)87% (Jul 26, 6:53 AM)30.06 "Hg (Jul 26, 6:53 AM)
Low68 °F (Jul 18, 5:53 AM)22% (Jul 28, 1:53 PM)29.72 "Hg (Jul 24, 5:53 PM)
Average75 °F63%29.97 "Hg
* Reported Jul 14 2:53 PM — Jul 29 2:53 PM, Orange, Weather by CustomWeather, © 2014

Note: Actual official high and low records may vary slightly from our data, if they occured in-between our weather recording intervals... More about our weather records

Advertising

Orange weather history for previous 24 hours

 ConditionsComfort  
Time TempWeatherWind HumidityBarometerVisibility
2:53 PM
Jul 29
83 °FOvercast.7 mph34%29.95 "Hg10 mi
1:53 PM83 °FPartly sunny.5 mph38%29.97 "Hg10 mi
12:53 PM83 °FPartly sunny.8 mph43%30.00 "Hg10 mi
11:53 AM85 °FBroken clouds.9 mph36%30.01 "Hg10 mi
10:53 AM82 °FScattered clouds.7 mph44%30.03 "Hg10 mi
9:53 AM80 °FScattered clouds.5 mph49%30.02 "Hg10 mi
8:53 AM76 °FScattered clouds.3 mph64%30.04 "Hg10 mi
7:53 AM75 °FScattered clouds.6 mph62%30.03 "Hg10 mi
6:53 AM73 °FPassing clouds.3 mph66%30.01 "Hg10 mi
5:53 AM71 °FPassing clouds.No wind71%30.01 "Hg10 mi
4:53 AM71 °FClear.3 mph73%30.01 "Hg10 mi
3:53 AM71 °FClear.7 mph76%30.01 "Hg10 mi
2:53 AM72 °FClear.No wind73%30.00 "Hg10 mi
1:53 AM72 °FClear.7 mph76%30.02 "Hg9 mi
12:53 AM73 °FClear.No wind71%30.02 "Hg10 mi
11:53 PM
Jul 28
73 °FClear.No wind71%30.01 "Hg10 mi
10:53 PM75 °FPassing clouds.6 mph69%30.02 "Hg10 mi
9:53 PM77 °FClear.No wind60%30.02 "Hg10 mi
8:53 PM77 °FSunny.3 mph54%30.01 "Hg10 mi
7:53 PM80 °FScattered clouds.6 mph39%29.98 "Hg10 mi
6:53 PM83 °FScattered clouds.8 mph22%29.97 "Hg10 mi
5:53 PM87 °FScattered clouds.6 mph28%29.96 "Hg10 mi
4:53 PM86 °FScattered clouds.7 mph27%29.97 "Hg10 mi
Weather by CustomWeather, © 2014

See weather overviewHow to use our weather pages